Hourly Data Report for September 19, 2018

SHEARWATER RCS
NOVA SCOTIA
Current Station Operator: ECCC - MSC

44°37'47.000" N
63°30'48.000" W
24.00 m
8205092
71264
AAW

Download Data

Hourly Data (September 2018)
Hourly Data Report for September 19, 2018
TIME Temp Definition
°C
Dew Point Definition
°C
Rel Hum Definition
%
Wind Dir Definition
10's deg

Wind Spd Definition
km/h
Visibility Definition
km
Stn Press Definition
kPa
Hmdx Definition


Wind Chill Definition


Weather Definition


00:00 15.4 14.0 91 2 20   100.43     LegendNANA
01:00 15.4 14.1 92 3 15   100.43     LegendNANA
02:00 15.4 14.4 94 2 11   100.51     LegendNANA
03:00 14.6 13.3 92 5 11   100.57     LegendNANA
04:00 14.1 12.5 91 3 14   100.59     LegendNANA
05:00 13.9 12.1 89 3 10   100.70     LegendNANA
06:00 13.7 12.0 90 3 12   100.74     LegendNANA
07:00 13.9 11.7 87 3 14   100.81     LegendNANA
08:00 14.3 11.7 85 5 16   100.87     LegendNANA
09:00 14.4 11.8 84 3 13   100.95     LegendNANA
10:00 14.1 11.4 84 1 14   101.08     LegendNANA
11:00 13.9 11.4 85 2 16   101.10     LegendNANA
12:00 13.8 11.2 84 2 20   101.15     LegendNANA
13:00 14.8 11.4 80 4 20   101.16     LegendNANA
14:00 16.0 11.4 74 5 19   101.17     LegendNANA
15:00 16.3 11.5 73 5 17   101.17     LegendNANA
16:00 16.0 11.3 74 6 14   101.22     LegendNANA
17:00 15.9 11.3 74 3 14   101.26     LegendNANA
18:00 15.4 10.8 74 4 15   101.32     LegendNANA
19:00 14.3 11.0 81 2 14   101.40     LegendNANA
20:00 13.6 11.0 84 3 10   101.52     LegendNANA
21:00 12.9 9.9 82 3 12   101.59     LegendNANA
22:00 11.8 9.5 86 3 9   101.60     LegendNANA
23:00 11.1 8.7 85 2 12   101.61     LegendNANA

Notes on Data Quality.

Legend

  • E = Estimated
  • M = Missing
  • NA = Not Available*
  • [empty] = Indicates an unobserved value
Date modified: